Showing default

COSMOS 256, 3576

Orbit data source: Space-Track

COSMOS 256, 3576 is a payload satellite owned by OKB-10 (CIS) in LEO that was launched on Sat, 30 Nov 1968 UTC via a KOSMOS 11K65M launch vehicle from the Plesetsk Missile And Space Complex (PKMTR). Payload-class satellites include a variety of spacecraft equipped with specific instruments for various scientific and technological missions. These include communications satellites like Starlink; space stations such as the ISS; scientific satellites like the Hubble; Earth observation satellites from companies like Planet Labs, Umbra, and HawkEye 360; GPS; miniature CubeSats for education and research; and military/defense satellites.

Loading next visibility...
Identifier
3576, 1968-106A
Orbit
LEO
Country
Flag of CISCIS
Related business
Manufacturer
OKB-10
Mission
Spacecraft
Bus & Motor
KAUR-1 11F621, Unknown motor
Mass
800 kg wet, 800 kg dry
Launch date (UTC)
1968-11-30 (57 years ago)
Launch vehicle
KOSMOS 11K65M
Launch site
Plesetsk Missile And Space Complex (PKMTR)
Object type
Payload
Rocket body
Debris
Shape & HBR
Unknown
Radar Cross Section
Large (>1 m²)

Expand to show TLE details & history
Last TLE update: 10 hours ago

TLE from 10 hours ago
0 COSMOS 256
1  3576U 68106A   25296.66517610 -.00000100  00000-0 -21045-3 0  9996
2  3576  74.0471  85.7278 0033087 136.8949 234.7395 13.16873784734560
Epoch: 2025-10-23T15:57Z
TLE epoch observation values (Epoch: 2025-10-23T15:57:51.215Z)
Latitude
10.8425°
Longitude
177.06586°
Altitude
1,212.926 km
Speed
7.242 km/s
True Right ascension
05h 55m 24s
True Declination
10° 46' 59"
Sunlit
Object was in daylight at epoch
Visualization orbit readout
Latitude
Unknown
Longitude
Unknown
Altitude
Unknown
Speed
Unknown
Apparent Right ascension
Unknown
Apparent Declination
Unknown
Sunlit
N/A
Visualization observer readout
Local Sidereal Time
21:12:47
Azimuth
Unknown
Elevation
Unknown
Doppler factor
Unknown
Orbital elements
Apogee altitude
1,219.497 km
Perigee altitude
1,169.386 km
Semi-major axis
7,572.578 km
Eccentricity
0.00331
Inclination
74.0471°
RAAN
85.7278°
Arg. of periapsis
136.8949°
True anomaly
234.43065°
Mean anomaly
234.7395°
Eccentric anomaly
234.585°
Mean motion
3.29365 °/min
Orbital period
109.3 mins
BSTAR
-0.00021045
Loading maneuver chart data...
Computing Atmospheric mass density...
Loading historical data...
Loading historical data...
Loading historical data...
Loading historical data...
Loading historical data...
Loading historical data...
Loading historical data...
Other satellites on launch #106 in the year 1968 (1968-11-30 UTC)

Documentation

Showing up to 5 results
|